Creek Data

    Home     View Charts     View Raw Data     Messages

ID Distance Battery Voltage Battery Current Internal Temp Internal Humidity External Temp Solar Input rssi snr Time Stamp Record
67174 12.7 3.58 -9 53 52 53 4.5 -72 9 02/24/2026 07:15 AM 50007
67173 12.6 3.60 -8 53 52 53 4.1 -73 9 02/24/2026 07:00 AM 50006
67172 12.6 3.76 -5 53 52 53 0.9 -73 9 02/24/2026 06:45 AM 50005
67171 12.6 3.76 -5 53 52 54 0.1 -74 9 02/24/2026 06:30 AM 50004
67170 12.6 3.76 -5 53 52 54 0 -73 9 02/24/2026 06:15 AM 50003
67169 12.6 3.77 -5 53 52 54 0 -73 9 02/24/2026 06:00 AM 50002
67168 12.6 3.77 -5 53 52 54 0.1 -74 9 02/24/2026 05:45 AM 50001
67167 12.6 3.61 -5 53 52 54 0 -74 8 02/24/2026 05:30 AM 50000
67166 12.6 3.77 -5 53 52 54 0 -73 8 02/24/2026 05:15 AM 49999
67165 12.6 3.77 -5 54 52 54 0 -74 8 02/24/2026 05:00 AM 49998
67164 12.6 3.62 -5 54 52 54 0 -74 9 02/24/2026 04:45 AM 49997
67163 12.6 3.62 -5 54 52 54 0 -73 9 02/24/2026 04:30 AM 49996
67162 12.6 3.77 -5 54 52 54 0 -73 8 02/24/2026 04:15 AM 49995
67161 12.6 3.77 -5 54 52 54 0 -73 8 02/24/2026 04:00 AM 49994
67160 12.6 3.78 -5 54 52 55 0 -73 9 02/24/2026 03:45 AM 49993
67159 12.6 3.78 -5 53 52 54 0 -72 8 02/24/2026 03:30 AM 49992
67158 12.6 3.62 -5 53 52 54 0 -73 8 02/24/2026 03:15 AM 49991
67157 12.5 3.63 -5 54 52 54 0 -72 8 02/24/2026 03:00 AM 49990
67156 12.5 3.63 -5 54 52 54 0 -74 8 02/24/2026 02:45 AM 49989
67155 12.5 3.63 -5 54 52 54 0 -73 9 02/24/2026 02:30 AM 49988
67154 12.5 3.64 -5 54 52 54 0 -74 8 02/24/2026 02:15 AM 49987
67153 12.5 3.78 -5 54 52 54 0 -74 8 02/24/2026 02:00 AM 49986
67152 12.5 3.78 -5 54 52 54 0 -73 9 02/24/2026 01:45 AM 49985
67151 12.5 3.62 -5 54 52 55 0 -73 8 02/24/2026 01:30 AM 49984
67150 12.5 3.62 -5 54 52 55 0 -73 8 02/24/2026 01:15 AM 49983